Location: Hawks Ness
(60.2333°N, 1.1667°W)
Time: 19:52:17
(UTC+00:00)

deb Chang Zheng 4 - Pass Details

Date: 22 October 2019
Orbit: 606 x 629 km, 98.5° (Epoch: 21 November)

Event Time Altitude Azimuth Distance (km) Brightness Sun altitude
Rises 03:44:43 0° 16° (NNE) 2,918 7.6 -24.6°
Reaches altitude 10° 03:46:57 10° 12° (NNE) 2,004 6.6 -24.4°
Enters shadow 03:50:21 45° 337° (NNW) 849 4.1 -24.0°
